Regional Weather Roundup
Issued by NWS Goodland, KS

Home | Current Version | Previous Version | Graphics & Text | Print | Product List | Glossary On
Versions: 1 2 3 4 5 6 7 8 9 10 11 12 13 14 15 16 17 18 19 20 21 22 23 24 25 26 27 28 29 30 31 32 33 34 35 36 37 38 39 40 41 42 43 44 45 46 47 48 49 50
000
ASUS43 KGLD 271208
RWRGLD

GOODLAND FORECAST AREA HOURLY WEATHER ROUNDUP
NATIONAL WEATHER SERVICE GOODLAND KS
500 AM MST TUE JAN 27 2015

...OFFICIAL OBSERVATIONS...

CITY           SKY/WX    TMP DP  RH WIND       PRES   REMARKS
GOODLAND KS    CLEAR     44  29  55 W13       30.09F
HILL CITY KS   PTCLDY    30  25  81 W6        30.07S
IMPERIAL NEB   PTCLDY    29  23  78 W3        30.06F
MCCOOK NEB     PTCLDY    31  27  85 W8        30.06F
AKRON CO       CLEAR     42  28  57 SW15      30.11F
BURLINGTON CO  PTCLDY    41  27  57 W10       30.12F
LIMON CO       PTCLDY    34  24  67 N9        30.18S
$$

...UNOFFICIAL OBSERVATIONS...

CITY           SKY/WX    TMP DP  RH WIND       PRES   REMARKS
COLBY KS       CLEAR     36  32  87 W10       30.08F
GOVE KS          N/A     31  32 100 MISG        N/A
NORTON KS      CLEAR     28  23  80 SW7       30.04F
SHARON SPRINGS   N/A     40  30  67 W10         N/A
KIT CARSON CO    N/A     43  25  49 MISG        N/A
YUMA CO          N/A     40  29  64 W14         N/A
$$



USA.gov is the U.S. government's official web portal to all federal, state and local government web resources and services.